FW2285 Weather Reports


Display with metric or nautical units.
time (UTC)temp
F
wind
direction
speed
MPH
gust
MPH
rain 1hr
in
rain 24hr
in
rain mn
in
humidity
%
barometer
mb
20260904234556 94 180 0.0 2.0 0.00 0.00 0.00 37 1011.3
20260904233053 94 186 0.0 3.0 0.00 0.00 0.00 37 1011.4
20260904231550 95 194 0.0 2.0 0.00 0.00 0.00 36 1011.5
20260904230050 95 121 1.0 7.0 0.00 0.00 0.00 36 1011.5
20260904224602 95 110 1.0 6.0 0.00 0.00 0.00 36 1011.5
20260904223050 95 87 0.0 3.0 0.00 0.00 0.00 37 1011.4
20260904221554 95 73 2.0 8.0 0.00 0.00 0.00 35 1011.6
20260904220048 96 140 0.0 4.0 0.00 0.00 0.00 36 1011.5
20260904214550 96 119 1.0 4.0 0.00 0.00 0.00 36 1011.8
20260904213047 96 113 1.0 6.0 0.00 0.00 0.00 36 1012.0
20260904211547 97 121 0.0 4.0 0.00 0.00 0.00 34 1012.0
20260904210053 96 113 3.0 8.0 0.00 0.00 0.00 34 1012.0
20260904204545 96 150 1.0 3.0 0.00 0.00 0.00 35 1012.0
20260904203045 97 280 1.0 6.0 0.00 0.00 0.00 36 1012.3
20260904201557 96 121 1.0 6.0 0.00 0.00 0.00 34 1012.3
20260904200044 96 131 0.0 3.0 0.00 0.00 0.00 34 1012.5
20260904194555 96 229 0.0 7.0 0.00 0.00 0.00 37 1012.7
20260904193041 96 180 0.0 3.0 0.00 0.00 0.00 36 1012.7
20260904191539 95 105 2.0 5.0 0.00 0.00 0.00 36 1012.9
20260904190039 95 123 2.0 9.0 0.00 0.00 0.00 35 1013.0
20260904184536 94 117 2.0 6.0 0.00 0.00 0.00 36 1013.1
20260904183035 94 164 1.0 5.0 0.00 0.00 0.00 41 1013.2
20260904181534 94 119 1.0 3.0 0.00 0.00 0.00 38 1013.4
20260904180035 93 276 2.0 7.0 0.00 0.00 0.00 38 1013.5
20260904174532 93 117 1.0 9.0 0.00 0.00 0.00 38 1013.5
20260904173030 92 97 0.0 4.0 0.00 0.00 0.00 43 1013.5
20260904171531 91 118 1.0 3.0 0.00 0.00 0.00 42 1014.0
20260904170027 91 121 1.0 5.0 0.00 0.00 0.00 45 1014.1
20260904164522 90 252 2.0 6.0 0.00 0.00 0.00 45 1014.1
20260904163121 89 261 1.0 7.0 0.00 0.00 0.00 46 1014.3
20260904161518 89 17 1.0 4.0 0.00 0.00 0.00 46 1014.3
20260904160016 88 184 1.0 6.0 0.00 0.00 0.00 48 1014.3
20260904154513 87 242 2.0 8.0 0.00 0.00 0.00 48 1014.3
20260904153019 87 240 1.0 6.0 0.00 0.00 0.00 50 1014.3
20260904151511 86 155 0.0 3.0 0.00 0.00 0.00 52 1014.3
20260904150014 85 196 2.0 6.0 0.00 0.00 0.00 52 1014.4
20260904144601 83 270 2.0 7.0 0.00 0.00 0.00 55 1014.2
20260904143058 82 150 0.0 3.0 0.00 0.00 0.00 56 1014.3
20260904141604 80 174 0.0 2.0 0.00 0.00 0.00 56 1014.3
20260904140049 79 130 0.0 3.0 0.00 0.00 0.00 57 1014.3
20260904134554 77 136 0.0 4.0 0.00 0.00 0.00 60 1014.2
20260904133047 76 117 0.0 2.0 0.00 0.00 0.00 61 1014.1
20260904131545 74 117 0.0 1.0 0.00 0.00 0.00 62 1014.1
20260904130045 73 117 0.0 1.0 0.00 0.00 0.00 63 1014.0
20260904124545 73 117 0.0 0.0 0.00 0.00 0.00 63 1013.8
20260904123042 73 117 0.0 0.0 0.00 0.00 0.00 64 1013.8
20260904121540 73 117 0.0 0.0 0.00 0.00 0.00 63 1013.6
20260904120039 73 117 0.0 0.0 0.00 0.00 0.00 63 1013.4
20260904114540 73 117 0.0 0.0 0.00 0.00 0.00 63 1013.2
20260904113036 73 117 0.0 0.0 0.00 0.00 0.00 63 1013.0
20260904111533 73 117 0.0 0.0 0.00 0.00 0.00 63 1013.1
20260904110031 73 117 0.0 0.0 0.00 0.00 0.00 63 1012.9
20260904104532 74 117 0.0 0.0 0.00 0.00 0.00 63 1012.8
20260904103030 74 117 0.0 0.0 0.00 0.00 0.00 63 1012.7
20260904101531 74 117 0.0 0.0 0.00 0.00 0.00 62 1012.5
20260904100026 74 117 0.0 0.0 0.00 0.00 0.00 62 1012.3
20260904094535 74 117 0.0 0.0 0.00 0.00 0.00 62 1012.1
20260904093023 74 117 0.0 0.0 0.00 0.00 0.00 62 1012.2
20260904091522 74 117 0.0 0.0 0.00 0.00 0.00 62 1012.0
20260904090021 75 117 0.0 0.0 0.00 0.00 0.00 62 1011.9
20260904084520 75 117 0.0 0.0 0.00 0.00 0.00 62 1011.7
20260904083032 75 117 0.0 0.0 0.00 0.00 0.00 62 1011.9
20260904081617 75 117 0.0 0.0 0.00 0.00 0.00 61 1011.9
20260904080016 75 117 0.0 0.0 0.00 0.00 0.00 61 1011.8
20260904074514 76 117 0.0 0.0 0.00 0.00 0.00 61 1011.9
20260904073021 76 117 0.0 0.0 0.00 0.00 0.00 60 1011.7
20260904071513 76 117 0.0 0.0 0.00 0.00 0.00 60 1011.6
20260904070011 76 117 0.0 0.0 0.00 0.00 0.00 60 1011.7
20260904064509 76 117 0.0 0.0 0.00 0.00 0.00 60 1011.9
20260904063008 77 117 0.0 0.0 0.00 0.00 0.00 59 1011.8
20260904061506 77 117 0.0 0.0 0.00 0.00 0.00 58 1011.9
20260904060004 77 117 0.0 0.0 0.00 0.00 0.00 58 1011.7
20260904054502 78 117 0.0 0.0 0.00 0.00 0.00 57 1011.7
20260904053100 78 117 0.0 0.0 0.00 0.00 0.00 56 1011.6
20260904051606 79 117 0.0 0.0 0.00 0.00 0.00 55 1011.5
20260904050057 79 117 0.0 0.0 0.00 0.00 0.00 53 1011.4
20260904044555 79 117 0.0 0.0 0.00 0.00 0.00 52 1011.4
20260904043055 80 117 0.0 0.0 0.00 0.00 0.00 52 1011.5
20260904041554 80 117 0.0 0.0 0.00 0.00 0.00 51 1011.4
20260904034555 81 117 0.0 0.0 0.00 0.00 0.00 50 1011.5
20260904033052 82 117 0.0 0.0 0.00 0.00 0.00 49 1011.3
20260904031552 83 117 0.0 0.0 0.00 0.00 0.00 49 1011.4
20260904030056 83 117 0.0 0.0 0.00 0.00 0.00 48 1011.3
20260904024554 83 117 0.0 0.0 0.00 0.00 0.00 49 1011.5
20260904023058 84 117 0.0 1.0 0.00 0.00 0.00 49 1011.1
20260904021551 84 117 0.0 0.0 0.00 0.00 0.00 48 1010.8
20260904020053 85 117 0.0 0.0 0.00 0.00 0.00 47 1010.8
20260904014559 85 117 0.0 0.0 0.00 0.00 0.00 45 1010.7
20260904013049 86 117 0.0 1.0 0.00 0.00 0.00 44 1010.4
20260904011548 87 117 0.0 0.0 0.00 0.00 0.00 44 1010.3
20260904010052 88 117 0.0 1.0 0.00 0.00 0.00 43 1010.1
20260904004547 89 117 0.0 2.0 0.00 0.00 0.00 40 1010.0
20260904003048 91 117 0.0 2.0 0.00 0.00 0.00 37 1010.0
20260904001545 92 117 0.0 2.0 0.00 0.00 0.00 36 1010.0
20260904000045 93 129 0.0 4.0 0.00 0.00 0.00 34 1010.0